TimeEST,TemperatureF,Dew PointF,Humidity,Sea Level PressureIn,VisibilityMPH,Wind Direction,Wind SpeedMPH,Gust SpeedMPH,PrecipitationIn,Events,Conditions,WindDirDegrees,DateUTC
12:15 AM,24.8,12.2,59,30.16,10.0,NNW,10.4,-,N/A,,Clear,330,2013-02-21 05:15:00
12:35 AM,24.8,12.2,59,30.16,10.0,NW,15.0,-,N/A,,Clear,320,2013-02-21 05:35:00
12:55 AM,23.0,12.2,63,30.15,10.0,NW,12.7,-,N/A,,Clear,320,2013-02-21 05:55:00
1:15 AM,24.8,12.2,59,30.16,10.0,NW,6.9,-,N/A,,Clear,320,2013-02-21 06:15:00
1:35 AM,24.8,12.2,59,30.16,10.0,NW,8.1,-,N/A,,Clear,320,2013-02-21 06:35:00
1:55 AM,24.8,12.2,59,30.17,10.0,NW,6.9,-,N/A,,Clear,320,2013-02-21 06:55:00
2:15 AM,24.8,12.2,59,30.17,10.0,NW,8.1,-,N/A,,Clear,320,2013-02-21 07:15:00
2:35 AM,24.8,12.2,59,30.17,10.0,NNW,5.8,-,N/A,,Clear,330,2013-02-21 07:35:00
2:55 AM,24.8,12.2,59,30.16,10.0,NW,8.1,20.7,N/A,,Clear,310,2013-02-21 07:55:00
3:15 AM,24.8,12.2,59,30.15,10.0,NW,13.8,17.3,N/A,,Clear,320,2013-02-21 08:15:00
3:35 AM,24.8,12.2,59,30.15,10.0,NW,9.2,-,N/A,,Clear,320,2013-02-21 08:35:00
3:55 AM,24.8,12.2,59,30.16,10.0,NW,9.2,-,N/A,,Clear,310,2013-02-21 08:55:00
4:15 AM,24.8,12.2,59,30.17,10.0,NW,11.5,-,N/A,,Clear,310,2013-02-21 09:15:00
4:35 AM,24.8,12.2,59,30.17,10.0,WNW,9.2,-,N/A,,Clear,300,2013-02-21 09:35:00
4:55 AM,24.8,12.2,59,30.17,10.0,NW,9.2,-,N/A,,Clear,310,2013-02-21 09:55:00
5:15 AM,24.8,14.0,64,30.17,10.0,NW,12.7,18.4,N/A,,Clear,320,2013-02-21 10:15:00
5:35 AM,24.8,12.2,59,30.17,10.0,NW,15.0,-,N/A,,Clear,310,2013-02-21 10:35:00
5:55 AM,24.8,14.0,64,30.18,10.0,WNW,12.7,16.1,N/A,,Clear,300,2013-02-21 10:55:00
6:15 AM,24.8,12.2,59,30.19,10.0,NW,4.6,-,N/A,,Scattered Clouds,310,2013-02-21 11:15:00
6:55 AM,24.8,14.0,64,30.20,10.0,WNW,11.5,-,N/A,,Partly Cloudy,300,2013-02-21 11:55:00
7:15 AM,24.8,14.0,64,30.20,10.0,WNW,9.2,-,N/A,,Clear,300,2013-02-21 12:15:00
7:35 AM,24.8,15.8,69,30.21,10.0,WNW,5.8,-,N/A,,Clear,300,2013-02-21 12:35:00
7:45 AM,26.6,15.8,64,30.21,10.0,WNW,11.5,17.3,N/A,,Clear,300,2013-02-21 12:45:00
8:45 AM,28.4,15.8,59,30.22,10.0,NW,18.4,26.5,N/A,,Clear,320,2013-02-21 13:45:00
9:45 AM,30.2,15.8,55,30.23,10.0,NW,13.8,20.7,N/A,,Scattered Clouds,310,2013-02-21 14:45:00
10:45 AM,33.8,15.8,48,30.23,10.0,NNW,17.3,21.9,N/A,,Clear,330,2013-02-21 15:45:00
11:45 AM,35.6,15.8,44,30.22,10.0,NNW,13.8,19.6,N/A,,Clear,330,2013-02-21 16:45:00
12:45 PM,37.4,15.8,41,30.21,10.0,NW,12.7,20.7,N/A,,Clear,320,2013-02-21 17:45:00
1:55 PM,37.4,15.8,41,30.19,10.0,NW,15.0,23.0,N/A,,Clear,310,2013-02-21 18:55:00
2:45 PM,39.2,15.8,39,30.18,10.0,NNW,18.4,25.3,N/A,,Clear,340,2013-02-21 19:45:00
3:55 PM,39.2,15.8,39,30.18,10.0,NNW,15.0,21.9,N/A,,Clear,340,2013-02-21 20:55:00
4:59 PM,37.4,15.8,41,30.22,10.0,NNW,11.5,-,N/A,,Clear,340,2013-02-21 21:59:00
5:45 PM,35.6,15.8,44,30.24,10.0,NNW,12.7,19.6,N/A,,Clear,330,2013-02-21 22:45:00
6:45 PM,33.8,17.6,52,30.28,10.0,NW,6.9,-,N/A,,Clear,320,2013-02-21 23:45:00
8:15 PM,30.2,19.4,64,30.31,10.0,North,6.9,-,N/A,,Clear,350,2013-02-22 01:15:00
8:35 PM,30.2,19.4,64,30.30,10.0,North,6.9,-,N/A,,Clear,350,2013-02-22 01:35:00
8:55 PM,30.2,19.4,64,30.31,10.0,NNW,8.1,-,N/A,,Clear,340,2013-02-22 01:55:00
9:15 PM,30.2,19.4,64,30.32,10.0,NNW,5.8,-,N/A,,Clear,330,2013-02-22 02:15:00
9:35 PM,28.4,19.4,69,30.33,10.0,NNW,5.8,-,N/A,,Clear,340,2013-02-22 02:35:00
9:55 PM,28.4,19.4,69,30.32,10.0,NNW,4.6,-,N/A,,Clear,340,2013-02-22 02:55:00
10:15 PM,28.4,19.4,69,30.32,10.0,North,5.8,-,N/A,,Clear,10,2013-02-22 03:15:00
10:35 PM,30.2,19.4,64,30.33,10.0,North,5.8,-,N/A,,Clear,350,2013-02-22 03:35:00
10:55 PM,28.4,19.4,69,30.33,10.0,North,4.6,-,N/A,,Clear,360,2013-02-22 03:55:00
11:15 PM,28.4,19.4,69,30.31,10.0,North,4.6,-,N/A,,Clear,360,2013-02-22 04:15:00
11:35 PM,28.4,19.4,69,30.32,10.0,Calm,Calm,-,N/A,,Clear,0,2013-02-22 04:35:00
11:55 PM,28.4,19.4,69,30.31,10.0,North,8.1,-,N/A,,Clear,360,2013-02-22 04:55:00